sat.trackr.live / text

‹ back to catalog

STARLINK-37055

NORAD 68147 · 2026-049F

PAYLOAD ACTIVE UNKNOWN

§ Identity

Operator
Country
US
Launch date
2026-03-13
Launch site
AFWTR
Launch vehicle
Mass (kg)
RCS (m²)

Purposes: comms

External: N2YO · Heavens-Above · Gunter

§ Orbital elements

Epoch: 2026-05-25T00:31:04.998432Z

Period
93.91 min
Inclination
97.2836°
Eccentricity
0.0001750
Mean motion
15.33451452 rev/d
Perigee alt
464.3 km
Apogee alt
466.7 km
Semi-major
6,843.7 km
B*
6.9990e-4
RAAN
166.6559°
Arg perigee
91.9965°
Mean anomaly
268.1478°
Rev number
1,134

§ Raw data

STARLINK-370551 68147U 26049F   26145.02158563  .00022593  00000+0  69990-3 0  99912 68147  97.2836 166.6559 0001750  91.9965 268.1478 15.33451452 11341

JSON: /api/v1/satellites/68147 · /tle

For live sub-satellite position, see the globe view (requires WebGL).

§ Visibility from observer

Set your observer location to see the next 7 days of passes ≥ 10°. The values pass through the URL so the page stays shareable.

No JS? Fill the form by hand. The geolocation button needs JavaScript.